Location: *
(28.3744°N, 81.5492°W)
Time: 03:11:55
(UTC+00:00)

Cosmos 1842 - Pass Details

Date: 15 June 2025
Orbit: 438 x 450 km, 82.5° (Epoch: 11 July)

Event Time Altitude Azimuth Distance (km) Brightness Sun altitude
Rises 00:46:31 0° 173° (S) 2,444 6.3 -5.0°
Reaches altitude 10° 00:48:37 10° 167° (SSE) 1,576 5.3 -5.4°
Maximum altitude 00:51:55 45° 93° (E) 625 3.2 -6.1°
Drops below altitude 10° 00:55:13 10° 20° (NNE) 1,583 5.8 -6.7°
Sets 00:57:20 0° 14° (NNE) 2,456 6.9 -7.1°
